Location: Friedrichshafen
(47.6598°N, 9.4819°E)
Time: 03:42:56
(UTC+02:00)

ISS - Pass Details

Date: 08 January 2018
Orbit: 401 x 409 km, 51.6° (Epoch: 20 August)

Event Time Altitude Azimuth Distance (km) Brightness Sun altitude
Exits shadow 05:14:37 16° 63° (ENE) 1,185 -0.9 -28.5°
Drops below altitude 10° 05:15:30 10° 69° (ENE) 1,511 -0.1 -28.4°
Enters shadow 06:11:27 -70° 275° (W) 12,385 3.7 -19.1°
Maximum altitude 06:49:19 59° 17° (NNE) 494 -3.5 -12.9°
